This demonstration page uses our WeatherBlox Daily Observations layout. Learn more.

Left ArrowRight Arrow

39.51506, -84.39828

Hourly Observations for February 29, 2016

Temp ( °F °C ) Dew Point ( °F °C ) Humidity (%) Winds ( mph kmh ) Pressure ( in mb ) Visibility ( mi km ) Precip ( " mm )
12:15 am 00:15 Cloudy 60 15.3 40 4.2 48 48 SW 17 28 29.62 1003 10 16 0.00 0.00
12:35 am 00:35 Cloudy with Light Rain 60 15.3 42 5.6 53 53 SW 21 33 29.62 1003 10 16 0.00 0.00
12:55 am 00:55 Windy with Snow Likely 54 12.3 47 8.3 77 77 WNW 20 31 29.71 1006 5 8 0.00 0.00
1:15 am 01:15 Cloudy with Light Rain 50 9.9 44 6.8 81 81 WNW 14 22 29.74 1007 7 11 0.00 0.00
1:35 am 01:35 Cloudy with Light Snow 49 9.6 44 6.9 83 83 W 10 17 29.74 1007 10 16 0.00 0.00
1:55 am 01:55 Cloudy with Light Snow 49 9.6 44 6.9 83 83 W 9 15 29.74 1007 7 11 0.00 0.00
2:15 am 02:15 Cloudy 49 9.6 44 6.8 83 83 W 12 19 29.77 1008 10 16 0.00 0.00
2:35 am 02:35 Cloudy 49 9.6 43 6.3 80 80 W 24 39 29.77 1008 10 16 0.00 0.00
2:55 am 02:55 Mostly Cloudy 49 9.6 42 5.6 76 76 W 16 26 29.80 1009 10 16 0.00 0.00
3:15 am 03:15 Cloudy 47 8.4 41 4.8 78 78 WNW 18 30 29.83 1010 10 16 0.00 0.00
3:35 am 03:35 Cloudy with Haze 44 6.8 39 4 83 83 W 10 17 29.83 1010 5 8 0.00 0.00
3:55 am 03:55 Cloudy 43 6.3 38 3.5 82 82 W 17 28 29.85 1011 7 11 0.00 0.00
4:15 am 04:15 Cloudy 43 6.1 37 2.9 80 80 W 17 28 29.85 1011 10 16 0.00 0.00
4:35 am 04:35 Cloudy 43 6 37 2.5 78 78 W 17 28 29.85 1011 10 16 0.00 0.00
4:55 am 04:55 Cloudy 42 5.8 37 2.5 80 80 WNW 14 22 29.88 1012 10 16 0.00 0.00
5:15 am 05:15 Cloudy 42 5.5 36 2.2 80 80 W 13 20 29.88 1012 10 16 0.00 0.00
5:35 am 05:35 Cloudy 42 5.5 36 2 78 78 WNW 9 15 29.91 1013 10 16 0.00 0.00
5:55 am 05:55 Cloudy 42 5.5 35 1.5 76 76 WNW 10 17 29.91 1013 10 16 0.00 0.00
6:15 am 06:15 Cloudy 42 5.5 35 1.6 76 76 WNW 10 17 29.94 1014 10 16 0.00 0.00
6:35 am 06:35 Cloudy 41 4.8 34 1.3 78 78 WNW 9 15 29.94 1014 10 16 0.00 0.00
6:55 am 06:55 Cloudy 40 4.7 34 1.2 78 78 WNW 10 17 29.94 1014 10 16 0.00 0.00
7:15 am 07:15 Cloudy 40 4.7 34 1 77 77 W 10 17 29.97 1015 10 16 0.00 0.00
7:35 am 07:35 Cloudy 40 4.7 33 0.5 74 74 W 12 19 29.97 1015 10 16 0.00 0.00
7:55 am 07:55 Cloudy 40 4.7 32 0.1 72 72 W 10 17 29.97 1015 10 16 0.00 0.00
8:15 am 08:15 Cloudy 40 4.7 31 -0.5 69 69 W 10 17 30.00 1016 10 16 0.00 0.00
8:35 am 08:35 Cloudy 40 4.7 31 -0.6 69 69 W 9 15 30.00 1016 10 16 0.00 0.00
8:55 am 08:55 Cloudy 40 4.7 31 -0.6 69 69 W 10 17 30.00 1016 10 16 0.00 0.00
9:15 am 09:15 Cloudy 40 4.7 31 -0.3 70 70 W 12 19 30.03 1017 10 16 0.00 0.00
9:35 am 09:35 Cloudy 40 4.7 32 0 72 72 W 9 15 30.03 1017 10 16 0.00 0.00
9:55 am 09:55 Cloudy 40 4.7 31 -0.6 69 69 W 17 28 30.03 1017 10 16 0.00 0.00
10:15 am 10:15 Cloudy 42 5.5 30 -1 63 63 W 15 24 30.06 1018 10 16 0.00 0.00
10:35 am 10:35 Cloudy 42 5.7 31 -0.4 65 65 W 13 20 30.06 1018 10 16 0.00 0.00
10:55 am 10:55 Cloudy 43 6 31 -0.4 64 64 WSW 15 24 30.06 1018 10 16 0.00 0.00
11:15 am 11:15 Cloudy 43 6 31 -0.5 63 63 WSW 14 22 30.09 1019 10 16 0.00 0.00
11:35 am 11:35 Cloudy 43 5.9 30 -1 62 62 W 13 20 30.09 1019 10 16 0.00 0.00
11:55 am 11:55 Partly Cloudy 46 7.9 31 -0.3 57 57 W 13 20 30.06 1018 10 16 0.00 0.00
12:15 pm 12:15 Partly Cloudy 48 8.9 33 0.5 56 56 SW 13 20 30.06 1018 10 16 0.00 0.00
12:35 pm 12:35 Sunny 49 9.6 33 0.6 54 54 SW 13 20 30.06 1018 10 16 0.00 0.00
12:55 pm 12:55 Sunny 49 9.6 32 0.1 52 52 WSW 14 22 30.03 1017 10 16 0.00 0.00
1:15 pm 13:15 Sunny 52 11 33 0.4 48 48 SSW 15 24 30.03 1017 10 16 0.00 0.00
1:35 pm 13:35 Sunny 53 11.9 33 0.5 46 46 SW 14 22 30.03 1017 10 16 0.00 0.00
1:55 pm 13:55 Sunny 55 12.5 33 0.5 44 44 WSW 14 22 30.03 1017 10 16 0.00 0.00
2:15 pm 14:15 Sunny 55 12.5 31 -0.3 42 42 WSW 12 19 30.03 1017 10 16 0.00 0.00
2:35 pm 14:35 Sunny 55 12.5 28 -2.3 36 36 WSW 12 19 30.00 1016 10 16 0.00 0.00
2:55 pm 14:55 Sunny 55 12.8 29 -1.7 37 37 SW 14 22 30.00 1016 10 16 0.00 0.00
3:15 pm 15:15 Sunny 56 13.4 27 -2.7 33 33 SW 15 24 30.00 1016 10 16 0.00 0.00
3:35 pm 15:35 Sunny 57 13.8 26 -3.3 31 31 WSW 16 26 30.00 1016 10 16 0.00 0.00
3:55 pm 15:55 Sunny 57 13.8 26 -3.6 30 30 WSW 12 19 30.00 1016 10 16 0.00 0.00
4:15 pm 16:15 Sunny 57 13.8 23 -4.9 27 27 WSW 16 26 30.00 1016 10 16 0.00 0.00
4:35 pm 16:35 Sunny 57 13.8 24 -4.3 28 28 SW 13 20 30.00 1016 10 16 0.00 0.00
4:55 pm 16:55 Sunny 57 13.8 24 -4.7 28 28 WSW 15 24 30.00 1016 10 16 0.00 0.00
5:15 pm 17:15 Sunny 57 13.8 24 -4.2 29 29 SW 10 17 30.00 1016 10 16 0.00 0.00
5:35 pm 17:35 Sunny 57 13.8 24 -4.7 28 28 WSW 13 20 30.00 1016 10 16 0.00 0.00
5:55 pm 17:55 Sunny 57 13.8 26 -3.2 31 31 WSW 10 17 30.00 1016 10 16 0.00 0.00
6:15 pm 18:15 Sunny 55 12.5 27 -2.8 35 35 WSW 8 13 30.00 1016 10 16 0.00 0.00
6:35 pm 18:35 Clear 55 12.5 28 -2 37 37 W 8 13 30.03 1017 10 16 0.00 0.00
7:15 pm 19:15 Clear 50 10.1 28 -2 43 43 SW 7 11 30.03 1017 10 16 0.00 0.00
7:35 pm 19:35 Clear 49 9.6 30 -0.9 48 48 WSW 6 9 30.03 1017 10 16 0.00 0.00
7:55 pm 19:55 Clear 49 9.6 31 -0.6 49 49 SW 6 9 30.03 1017 10 16 0.00 0.00
8:15 pm 20:15 Clear 49 9.6 31 -0.3 50 50 SW 3 6 30.03 1017 10 16 0.00 0.00
8:35 pm 20:35 Clear 49 9.6 29 -1.9 45 45 SSW 5 7 30.03 1017 10 16 0.00 0.00
8:55 pm 20:55 Clear 43 6.1 31 -0.3 64 64 Calm 30.03 1017 10 16 0.00 0.00
9:15 pm 21:15 Clear 42 5.3 32 0 69 69 Calm 30.03 1017 10 16 0.00 0.00
9:35 pm 21:35 Clear 44 6.5 32 -0.2 63 63 Calm 30.03 1017 10 16 0.00 0.00
9:55 pm 21:55 Clear 40 4.7 33 0.7 76 76 Calm 30.03 1017 10 16 0.00 0.00
10:15 pm 22:15 Clear 39 3.9 33 0.4 78 78 WSW 5 7 30.03 1017 10 16 0.00 0.00
10:35 pm 22:35 Clear 39 4.1 32 0 75 75 Calm 30.03 1017 10 16 0.00 0.00
10:55 pm 22:55 Clear 39 4 32 0.2 77 77 Calm 30.03 1017 10 16 0.00 0.00
11:15 pm 23:15 Clear 39 4 33 0.7 79 79 Calm 30.03 1017 10 16 0.00 0.00
11:35 pm 23:35 Clear 37 2.6 32 0 83 83 Calm 30.06 1018 10 16 0.00 0.00
11:55 pm 23:55 Clear 37 2.6 32 0 83 83 Calm 30.06 1018 10 16 0.00 0.00

Powered by AerisWeather